When you browse on this site, cookies collect data to enhance your experience and personalize the content and advertising you see.
Visit our Privacy Policy to learn more. By continuing to use the site, you agree to this use of cookies and data.
  • In Hungary
  • List of Countries
  • For 7 days
  • Water Temperature
  • Satellite Maps
  • Weather Map
  • News
  • Weather Widgets
  • user-avatar
    Login

    Hourly Weather Blanes

    Today, 15 December, Saturday

    Time Temperature Precipitation Wind Pressure Humidity
    00:00 +9°C° 0 mm 2 mps 763 mmHg 88%
    01:00 +9°C° 0 mm 3 mps 763 mmHg 88%
    02:00 +9°C° 0 mm 3 mps 763 mmHg 88%
    03:00 +8°C° 0 mm 3 mps 763 mmHg 87%
    04:00 +8°C° 0 mm 3 mps 763 mmHg 87%
    05:00 +8°C° 0 mm 3 mps 763 mmHg 86%
    06:00 +8°C° 0 mm 2 mps 763 mmHg 85%
    07:00 +8°C° 0 mm 2 mps 763 mmHg 81%
    08:00 +9°C° 0 mm 2 mps 764 mmHg 77%
    09:00 +11°C° 0 mm 1 mps 764 mmHg 72%
    10:00 +13°C° 0 mm 1 mps 764 mmHg 67%
    11:00 +14°C° 0 mm 2 mps 764 mmHg 62%
    12:00 +15°C° 0 mm 2 mps 763 mmHg 57%
    13:00 +15°C° 0 mm 2 mps 763 mmHg 58%
    14:00 +14°C° 0 mm 3 mps 763 mmHg 59%
    15:00 +14°C° 0 mm 3 mps 763 mmHg 60%
    16:00 +13°C° 0 mm 3 mps 763 mmHg 63%
    17:00 +13°C° 0 mm 3 mps 763 mmHg 66%
    18:00 +12°C° 0 mm 3 mps 762 mmHg 70%
    19:00 +11°C° 0 mm 3 mps 762 mmHg 69%
    20:00 +11°C° 0 mm 3 mps 762 mmHg 69%
    21:00 +11°C° 0 mm 3 mps 762 mmHg 68%
    22:00 +11°C° 0 mm 3 mps 762 mmHg 69%
    23:00 +11°C° 0 mm 3 mps 762 mmHg 70%

    Tomorrow, 16 December, Sunday

    Time Temperature Precipitation Wind Pressure Humidity
    00:00 +11°C° 0 mm 3 mps 761 mmHg 71%
    01:00 +10°C° 0 mm 3 mps 761 mmHg 73%
    02:00 +10°C° 0 mm 3 mps 761 mmHg 76%
    03:00 +10°C° 0 mm 3 mps 761 mmHg 78%
    04:00 +10°C° 0 mm 3 mps 761 mmHg 81%
    05:00 +10°C° 0 mm 3 mps 761 mmHg 83%
    06:00 +10°C° 0 mm 3 mps 760 mmHg 85%
    07:00 +11°C° 0 mm 3 mps 760 mmHg 82%
    08:00 +13°C° 0 mm 2 mps 760 mmHg 79%
    09:00 +13°C° 0 mm 2 mps 760 mmHg 77%
    10:00 +14°C° 0 mm 2 mps 760 mmHg 75%
    11:00 +15°C° 0 mm 2 mps 760 mmHg 74%
    12:00 +15°C° 0 mm 2 mps 760 mmHg 73%
    13:00 +15°C° 0 mm 2 mps 759 mmHg 76%
    14:00 +14°C° 0 mm 3 mps 759 mmHg 78%
    15:00 +13°C° 0 mm 3 mps 759 mmHg 80%
    16:00 +13°C° 0 mm 4 mps 759 mmHg 84%
    17:00 +12°C° 0 mm 5 mps 760 mmHg 87%
    18:00 +10°C° 0 mm 6 mps 760 mmHg 91%
    19:00 +10°C° 0 mm 6 mps 760 mmHg 91%
    20:00 +9°C° 0 mm 6 mps 760 mmHg 91%
    21:00 +9°C° 0 mm 6 mps 761 mmHg 91%
    22:00 +9°C° 0 mm 5 mps 761 mmHg 90%
    23:00 +8°C° 0 mm 4 mps 762 mmHg 89%

    Day after tomorrow, 17 December, Monday

    Time Temperature Precipitation Wind Pressure Humidity
    00:00 +9°C° 0 mm 3 mps 762 mmHg 88%
    01:00 +10°C° 0.2 mm 3 mps 762 mmHg 87%
    02:00 +10°C° 0.2 mm 4 mps 763 mmHg 86%
    03:00 +10°C° 0.2 mm 4 mps 763 mmHg 84%
    04:00 +10°C° 0.2 mm 4 mps 764 mmHg 82%
    05:00 +8°C° 0.2 mm 4 mps 764 mmHg 80%
    06:00 +8°C° 0.2 mm 4 mps 765 mmHg 78%
    07:00 +8°C° 0.1 mm 5 mps 766 mmHg 75%
    08:00 +9°C° 0.1 mm 5 mps 766 mmHg 71%
    09:00 +9°C° 0.1 mm 5 mps 767 mmHg 68%
    10:00 +12°C° 0 mm 4 mps 767 mmHg 63%
    11:00 +13°C° 0 mm 4 mps 767 mmHg 58%
    12:00 +14°C° 0 mm 4 mps 768 mmHg 53%
    13:00 +14°C° 0 mm 4 mps 768 mmHg 54%
    14:00 +14°C° 0 mm 3 mps 768 mmHg 55%
    15:00 +14°C° 0 mm 3 mps 768 mmHg 55%
    16:00 +12°C° 0 mm 3 mps 768 mmHg 60%
    17:00 +11°C° 0 mm 3 mps 768 mmHg 65%
    18:00 +9°C° 0 mm 3 mps 769 mmHg 70%
    19:00 +9°C° 0 mm 2 mps 769 mmHg 70%
    20:00 +9°C° 0 mm 2 mps 769 mmHg 70%
    21:00 +8°C° 0 mm 2 mps 769 mmHg 70%
    22:00 +8°C° 0 mm 2 mps 769 mmHg 70%
    23:00 +8°C° 0 mm 2 mps 769 mmHg 70%

    18 December, Tuesday

    Time Temperature Precipitation Wind Pressure Humidity
    00:00 +8°C° 0 mm 2 mps 769 mmHg 70%
    01:00 +8°C° 0 mm 3 mps 768 mmHg 72%
    02:00 +8°C° 0 mm 3 mps 768 mmHg 73%
    03:00 +8°C° 0 mm 3 mps 768 mmHg 75%
    04:00 +7°C° 0 mm 4 mps 767 mmHg 78%
    05:00 +7°C° 0 mm 4 mps 767 mmHg 80%
    06:00 +7°C° 0 mm 4 mps 767 mmHg 83%
    07:00 +8°C° 0 mm 4 mps 767 mmHg 80%
    08:00 +9°C° 0 mm 5 mps 767 mmHg 77%
    09:00 +9°C° 0 mm 5 mps 767 mmHg 74%
    10:00 +12°C° 0 mm 5 mps 766 mmHg 65%
    11:00 +13°C° 0 mm 6 mps 766 mmHg 57%
    12:00 +15°C° 0 mm 6 mps 765 mmHg 48%
    13:00 +14°C° 0 mm 6 mps 765 mmHg 53%
    14:00 +14°C° 0 mm 7 mps 764 mmHg 57%
    15:00 +12°C° 0 mm 7 mps 764 mmHg 61%
    16:00 +12°C° 0 mm 7 mps 764 mmHg 66%
    17:00 +12°C° 0 mm 7 mps 764 mmHg 71%
    18:00 +11°C° 0 mm 7 mps 764 mmHg 76%
    19:00 +11°C° 0 mm 7 mps 764 mmHg 78%
    20:00 +11°C° 0 mm 7 mps 764 mmHg 79%
    21:00 +11°C° 0 mm 7 mps 764 mmHg 80%
    22:00 +11°C° 0 mm 7 mps 764 mmHg 81%
    23:00 +11°C° 0 mm 7 mps 763 mmHg 82%

    19 December, Wednesday

    Time Temperature Precipitation Wind Pressure Humidity
    00:00 +11°C° 0 mm 7 mps 763 mmHg 83%
    01:00 +11°C° 0.1 mm 6 mps 763 mmHg 84%
    02:00 +10°C° 0.1 mm 5 mps 762 mmHg 86%
    03:00 +10°C° 0.1 mm 5 mps 762 mmHg 88%
    04:00 +11°C° 0.2 mm 4 mps 762 mmHg 86%
    05:00 +10°C° 0.2 mm 4 mps 762 mmHg 85%
    06:00 +10°C° 0.2 mm 3 mps 762 mmHg 83%
    07:00 +11°C° 0 mm 3 mps 763 mmHg 79%
    08:00 +11°C° 0 mm 3 mps 763 mmHg 76%
    09:00 +11°C° 0 mm 3 mps 763 mmHg 72%
    10:00 +13°C° 0 mm 3 mps 763 mmHg 66%
    11:00 +15°C° 0 mm 2 mps 763 mmHg 60%
    12:00 +16°C° 0 mm 2 mps 763 mmHg 54%
    13:00 +16°C° 0 mm 2 mps 763 mmHg 55%
    14:00 +16°C° 0 mm 2 mps 763 mmHg 56%
    15:00 +15°C° 0 mm 2 mps 763 mmHg 58%
    16:00 +14°C° 0.1 mm 2 mps 763 mmHg 64%
    17:00 +13°C° 0.1 mm 2 mps 764 mmHg 70%
    18:00 +12°C° 0.1 mm 1 mps 764 mmHg 77%
    19:00 +11°C° 0.2 mm 1 mps 764 mmHg 79%
    20:00 +11°C° 0.2 mm 1 mps 765 mmHg 81%
    21:00 +10°C° 0.2 mm 1 mps 765 mmHg 82%
    22:00 +9°C° 0.1 mm 2 mps 765 mmHg 83%
    23:00 +9°C° 0.1 mm 2 mps 765 mmHg 84%

    20 December, Thursday

    Time Temperature Precipitation Wind Pressure Humidity
    00:00 +8°C° 0.1 mm 2 mps 765 mmHg 85%
    01:00 +8°C° 0 mm 2 mps 765 mmHg 84%
    02:00 +8°C° 0 mm 2 mps 765 mmHg 84%
    03:00 +8°C° 0 mm 2 mps 766 mmHg 83%
    04:00 +7°C° 0 mm 2 mps 766 mmHg 82%
    05:00 +7°C° 0 mm 2 mps 766 mmHg 80%
    06:00 +7°C° 0 mm 2 mps 766 mmHg 79%
    07:00 +8°C° 0 mm 2 mps 767 mmHg 75%
    08:00 +9°C° 0 mm 2 mps 767 mmHg 71%
    09:00 +10°C° 0 mm 2 mps 768 mmHg 67%
    10:00 +12°C° 0 mm 2 mps 767 mmHg 64%
    11:00 +13°C° 0 mm 2 mps 767 mmHg 60%
    12:00 +14°C° 0 mm 2 mps 767 mmHg 57%
    13:00 +14°C° 0 mm 2 mps 767 mmHg 58%
    14:00 +14°C° 0 mm 2 mps 767 mmHg 59%
    15:00 +14°C° 0 mm 2 mps 767 mmHg 60%
    16:00 +13°C° 0 mm 1 mps 767 mmHg 67%
    17:00 +11°C° 0 mm 1 mps 768 mmHg 74%
    18:00 +10°C° 0 mm 1 mps 768 mmHg 81%
    19:00 +9°C° 0 mm 1 mps 768 mmHg 81%
    20:00 +9°C° 0 mm 1 mps 769 mmHg 81%
    21:00 +9°C° 0 mm 1 mps 769 mmHg 82%
    22:00 +8°C° 0 mm 2 mps 769 mmHg 80%
    23:00 +8°C° 0 mm 2 mps 769 mmHg 79%
    Show more